Location: *
(50.9167°S, 179.4000°W)
Time: 20:52:14
(UTC+00:00)

PSLV R/B - Pass Details

Date: 03 March 2024
Orbit: 580 x 611 km, 98.1° (Epoch: 16 April)

Event Time Altitude Azimuth Distance (km) Brightness Sun altitude
Rises 16:48:42 0° 10° (N) 2,877 6.9 -7.4°
Reaches altitude 10° 16:50:54 10° 7° (N) 1,977 6.0 -7.1°
Maximum altitude 16:55:11 70° 283° (WNW) 658 3.5 -6.4°
Drops below altitude 10° 16:59:30 10° 198° (SSW) 1,984 6.2 -5.8°
Sets 17:01:42 0° 196° (SSW) 2,890 7.0 -5.5°
